KUZGTU 1 (RS47S) (57217 NORAD) Tracking and Keplerian Element Data

This shows tracking and keplerian element data for the satellite.

Feedback or suggestion? Click here.




ElementValue
Catalog57217
NameKUZGTU 1 (RS47S)
Epoch Orbit7127
Epoch Day286.90081745
Epoch Year2024
RAAN338.4452
Inclination97.5991
Eccentricity0.0017342
Argument of Perigee76.1712
Mean Anonmoly284.1447
Mean Motion15.12329677
Decay Rate0.00019851
L11 57217U 23091AV 24286.90081745 .00019851 00000+0 11431-2 0 9998
L22 57217 97.5991 338.4452 0017342 76.1712 284.1447 15.12329677 71274



Live tracking and technical data element details for KUZGTU 1 (RS47S) (NORAD 57217). KUZGTU 1 (RS47S) can be tracked NOW for your location showing map with azimuth and elevation plus other details from your city location.







IsCatalogInMostPopularTable: catalog: 57217, numindb: 36
Update: records affected: 1



GetName: 57217 KUZGTU 1 (RS47S)

Hit Count: updated at: Fri, 24 Jan 2025 23:33:53 GMT